Back to catalog

MARECS A

AliveCommunicationsMEO
NORAD 13010·PAYLOAD·🇪🇺 EU

Launched Dec 20, 1981 from Guiana Space Centre

Loading…

Next Passes (next 24 hours)

TLE

FreshSource: Space-Track

Epoch: Sep 14, 2026, 14:03 UTC

1 13010U 81122A   26257.58547308 -.00000250  00000-0  00000-0 0  9999
2 13010  11.5118 328.9361 0120050 268.0504 116.5312  0.95040117112212

Track MARECS A in real time with AllMySat

Download on the App Store